Regional Weather Roundup
Issued by NWS Sioux Falls, SD

Home | Current Version | Previous Version | Graphics & Text | Print | Product List | Glossary On
Versions: 1 2 3 4 5 6 7 8 9 10 11 12 13 14 15 16 17 18 19 20 21 22 23 24 25 26 27 28 29 30 31 32 33 34 35 36 37 38 39 40 41 42 43 44 45 46 47 48 49 50
000
ASUS43 KFSD 210702
RWRFSD

WEATHER ROUNDUP FOR SE SOUTH DAKOTA/SW MINNESOTA/NW IOWA
NATIONAL WEATHER SERVICE SIOUX FALLS SD
100 AM CST TUE FEB 21 2017

NOTE: "FAIR" INDICATES FEW OR NO CLOUDS BELOW 12,000 FEET WITH NO
SIGNIFICANT WEATHER AND OR OBSTRUCTIONS TO VISIBILITY.


SDZ038>040-050-052>070-210800-
SOUTHEAST SOUTH DAKOTA

CITY           SKY/WX    TMP DP  RH WIND       PRES   REMARKS
BROOKINGS      CLEAR     32  31  96 S7        29.87S FOG     WCI  26
CHAMBERLAIN    CLEAR     36  31  80 SE9       29.84S
HURON          CLEAR     37  35  92 S8        29.85S
MADISON        FAIR      34  34 100 SE7       29.88S WCI  28
MITCHELL       PTCLDY    35  33  92 S9        29.88S WCI  28
SIOUX FALLS    FOG       31  30  96 CALM      29.90S VSB 1/2
WINNER         FAIR      48  29  47 SW15      29.83F
YANKTON        CLEAR     36  30  80 S3        29.91S
$$

MNZ071-072-080-081-089-090-097-098-210800-
SOUTHWEST MINNESOTA

CITY           SKY/WX    TMP DP  RH WIND       PRES   REMARKS
FAIRMONT       CLEAR     39  36  89 W6        29.90R
JACKSON        PTCLDY    36  34  93 W6        29.90F
LUVERNE        CLEAR     30  28  93 CALM      29.91S FOG
MARSHALL       CLEAR     38  33  82 SW9       29.87F
MONTEVIDEO     CLEAR     36  36 100 W6        29.87S
PIPESTONE      CLEAR     36  32  87 SW3       29.88S FOG
REDWOOD FALLS  CLEAR     36  34  92 SW9       29.87F
TRACY          CLEAR     38  35  89 SW6       29.88S
WINDOM         CLEAR     36  36 100 SW3       29.89S
WORTHINGTON    CLEAR     38  36  92 SW6       29.91S
$$

IAZ001>003-012>014-020>022-031-032-NEZ013-014-SDZ071-210800-
NORTHWEST IOWA

CITY           SKY/WX    TMP DP  RH WIND       PRES   REMARKS
CHEROKEE       CLEAR     32  32 100 CALM      29.94S FOG
DENISON        CLEAR     36  36 100 SE3       29.94R FOG
ESTHERVILLE    CLEAR     36  36 100 W6        29.90R
LE MARS        CLEAR     32  32 100 CALM      29.94F FOG
SHELDON        CLEAR     32  32 100 SE3       29.90F FOG
SIOUX CITY     FOG       32  32 100 S3        29.95R VSB 1/2
SPENCER        CLEAR     35  34  96 SW5       29.92R
STORM LAKE     CLEAR     41  39  93 W8        29.94S
$$

ABBREVIATIONS USED IN REMARKS
   TC - TEMPERATURE IN CELSIUS
  WCI - WIND CHILL INDEX
   HX - HEAT INDEX
  VSB - VISIBILITY





USA.gov is the U.S. government's official web portal to all federal, state and local government web resources and services.